Regional Weather Roundup
Issued by NWS Goodland, KS

Home | Current Version | Previous Version | Text Only | Print | Product List | Glossary Off
Versions: 1 2 3 4 5 6 7 8 9 10 11 12 13 14 15 16 17 18 19 20 21 22 23 24 25 26 27 28 29 30 31 32 33 34 35 36 37 38 39 40 41 42 43 44 45 46 47 48 49 50

000
ASUS43 KGLD 220759
RWRGLD

GOODLAND FORECAST AREA HOURLY WEATHER ROUNDUP
NATIONAL WEATHER SERVICE GOODLAND KS
200 AM MDT SAT JUL 22 2017

...OFFICIAL OBSERVATIONS...

CITY           SKY/WX    TMP DP  RH WIND       PRES   REMARKS
GOODLAND KS    PTCLDY    72  57  59 NW17      29.99F
HILL CITY KS   CLEAR     80  57  45 SW10      29.85F
IMPERIAL NEB   CLOUDY    68  60  75 N8        29.95F
MCCOOK NEB     PTCLDY    79  58  48 N23       29.88F
AKRON CO       CLOUDY    64  59  83 S13       30.10S
BURLINGTON CO  MOCLDY    70  57  63 NW17      30.07S
LIMON CO       PTCLDY    70  53  54 VRB7      30.12F
$$

...UNOFFICIAL OBSERVATIONS...

CITY           SKY/WX    TMP DP  RH WIND       PRES   REMARKS
LENORA KS        N/A     73  32  22 MISG        N/A
NORTON KS      CLEAR     75  54  46 S7        29.84F
SHARON SPRINGS   N/A     73  59  60 N15G22      N/A
TRENTON NEB      N/A     73  32  22 NW9         N/A
KIT CARSON CO    N/A     71  55  58 MISG        N/A
YUMA CO        FAIR      64  50  59 N10       30.06F
$$




USA.gov is the U.S. government's official web portal to all federal, state and local government web resources and services.